Showing default

GSAT 30, 45026

Orbit data source: Space-Track

GSAT 30, 45026 is a payload satellite owned by ISRO (IN) in GEO that was launched on Thu, 16 Jan 2020 UTC via an ARIANE 5ECA+ launch vehicle from the French Guiana (FRGUI). Payload-class satellites include a variety of spacecraft equipped with specific instruments for various scientific and technological missions. These include communications satellites like Starlink; space stations such as the ISS; scientific satellites like the Hubble; Earth observation satellites from companies like Planet Labs, Umbra, and HawkEye 360; GPS; miniature CubeSats for education and research; and military/defense satellites.

Not visible in the next 10 days
Identifier
45026, 2020-005A
Orbit
GEO
Country
Flag of ININ / IND
Related business
Manufacturer
ISRO SAC/Banga
Mission
Operational Civil Communications
Bus & Motor
I3K, ISRO LAM
Mass
3,357 kg wet, ~1,900 kg dry
Launch date (UTC)
2020-01-16 (6 years ago)
Launch vehicle
ARIANE 5ECA+
Launch site
French Guiana (FRGUI)
Object type
Payload
Rocket body
Debris
Shape & HBR
Box + 2 Pan, Unknown HBR
Radar Cross Section
28.213 m², Large (>1 m²)

Expand to show TLE details & history
Last TLE update: 2 days ago

TLE from 2 days ago
0 GSAT 30
1 45026U 20005A   26171.40849205 -.00000169  00000-0  00000+0 0  9999
2 45026   0.0232 262.0961 0003454 176.5947  59.9797  1.00273051 23546
Epoch: 2026-06-20T09:48Z
TLE epoch observation values (Epoch: 2026-06-20T09:48:13.713Z)
Latitude
-0.00307°
Longitude
83.03647°
Altitude
35,778.405 km
Speed
3.075 km/s
True Right ascension
09h 14m 52s
True Declination
0° 00' 11"
Sunlit
Object was in daylight at epoch
Visualization orbit readout
Latitude
Unknown
Longitude
Unknown
Altitude
Unknown
Speed
Unknown
Apparent Right ascension
Unknown
Apparent Declination
Unknown
Sunlit
N/A
Visualization observer readout
Local Sidereal Time
21:33:23
Azimuth
Unknown
Elevation
Unknown
Doppler factor
Unknown
Orbital elements
Apogee altitude
35,801.874 km
Perigee altitude
35,772.747 km
Semi-major axis
42,165.447 km
Eccentricity
0.00035
Inclination
0.0232°
RAAN
262.0961°
Arg. of periapsis
176.5947°
True anomaly
60.01398°
Mean anomaly
59.9797°
Eccentric anomaly
59.99684°
Mean motion
0.25067 °/min
Orbital period
1,436.13 mins
BSTAR
0
Loading maneuver chart data...
Computing Atmospheric mass density...
Loading historical data...
Loading historical data...
Loading historical data...
Loading historical data...
Loading historical data...
Loading historical data...
Loading historical data...
Other satellites on launch #5 in the year 2020 (2020-01-16 UTC)

Documentation

Showing up to 5 results
|